Location: Burzi?i
(45.0869°N, 16.0577°E)
Time: 12:16:26
(UTC+00:00)

Cosmos 1992 Rocket - Pass Details

Date: 29 October 2020
Orbit: 759 x 765 km, 74.0° (Epoch: 28 November)

Event Time Altitude Azimuth Distance (km) Brightness Sun altitude
Rises 17:31:36 0° 202° (SSW) 3,205 7.5 -18.9°
Reaches altitude 10° 17:33:57 10° 204° (SSW) 2,284 6.7 -19.3°
Maximum altitude 17:39:09 80° 292° (WNW) 776 4.0 -20.2°
Drops below altitude 10° 17:44:22 10° 19° (NNE) 2,299 6.3 -21.1°
Enters shadow 17:45:22 - 20° (NNE) 2,690 6.6 -21.3°
